Lid_Strength_Index
12 13 14 13 13 14 15 15 15 15 14 15 15 15 13 11 14 14 15 16 15 15 14 16 16 16 17 16 16 16 16 15 15 15 16 16 17 16 16 16 15 16 16 15
13 14 12 13 14 14 15 16 16 15 15 16 16 16 13 13 12 11 12 14 15 15 17 17 16 17 17 17 16 16 16 16 15 16 16 16 17 17 16 16 16 16 16 16
14 14 13 13 15 15 16 16 17 16 16 16 18 18 17 15 14 13 13 13 14 15 16 17 17 17 17 17 17 17 16 16 16 16 16 17 17 17 18 17 17 17 16 16
14 13 13 15 15 15 16 15 16 17 17 19 17 19 18 15 14 14 13 15 14 15 15 16 17 18 17 17 17 17 17 17 16 17 17 18 19 19 18 18 17 17 17 17
14 15 15 15 14 14 15 16 16 17 18 20 20 21 18 19 17 14 13 14 15 15 16 17 17 17 17 17 17 17 17 17 17 17 17 18 19 19 18 19 19 18 17 17
14 14 14 14 15 15 15 17 17 20 20 23 18 19 20 19 17 15 14 14 15 16 16 16 16 16 17 17 17 18 18 18 18 18 18 19 19 20 20 20 20 19 19 18
15 15 15 14 15 15 16 16 19 21 23 21 22 23 18 17 16 15 14 14 15 16 17 18 17 18 17 18 18 18 18 19 18 18 19 19 20 20 21 20 20 20 20 19
16 16 15 14 13 15 17 15 18 23 24 20 24 23 18 17 14 16 16 16 17 17 18 18 18 18 17 18 18 18 18 19 19 19 19 20 20 20 21 21 21 21 21 20
16 16 17 16 16 15 18 19 17 21 30 25 20 19 17 17 17 17 17 18 17 17 18 18 18 17 17 18 18 18 19 19 20 20 20 21 21 21 22 21 21 21 21 20
14 16 17 18 18 19 18 17 19 19 23 26 21 19 18 17 16 15 16 16 16 17 19 19 18 18 18 18 18 19 19 20 20 20 21 21 22 22 22 22 22 22 21 21
14 13 17 18 19 18 19 19 19 17 19 22 23 19 18 16 15 15 14 15 16 17 19 19 18 18 18 19 19 20 20 20 21 21 22 22 22 22 22 22 22 22 22 21
13 14 16 18 19 19 18 17 16 19 20 21 21 19 16 16 15 15 14 15 16 17 19 19 19 19 19 19 20 20 21 21 21 22 22 23 23 23 23 23 23 22 22 22
14 16 19 17 20 19 19 19 17 19 20 19 21 19 15 16 16 15 16 16 16 17 19 20 19 19 19 19 20 21 21 22 22 23 24 24 24 24 24 23 23 23 22 22
12 16 16 18 17 19 20 20 18 18 19 18 19 17 15 14 14 14 16 17 16 17 18 20 19 19 18 19 20 22 22 23 24 24 25 25 24 24 24 24 23 23 23 23
14 17 16 15 15 18 19 18 18 19 18 19 17 17 15 13 12 12 12 11 14 18 20 19 19 19 20 20 21 22 24 24 25 25 25 25 24 25 24 24 24 23 24 24
16 17 16 17 15 18 18 17 16 17 17 17 17 17 13 11 12 12 11 12 13 16 18 19 19 19 20 20 22 23 25 25 25 25 25 25 25 25 25 25 24 25 25 25
17 17 18 19 17 17 20 17 16 15 15 15 17 15 13 13 13 12 12 11 12 12 17 18 19 19 20 20 22 25 25 25 25 24 25 26 26 27 26 26 26 26 26 26
15 16 16 19 18 22 16 13 14 16 15 14 14 13 12 12 11 11 12 12 12 14 17 18 19 19 20 23 24 25 25 24 25 25 27 27 27 28 27 28 27 27 26 26
12 14 17 19 19 17 15 15 16 17 16 13 14 13 12 12 15 14 14 14 12 14 17 18 19 21 24 24 25 25 25 25 26 27 27 27 28 29 29 30 28 27 27 27
13 12 15 16 19 20 16 13 12 15 18 12 12 12 12 13 16 13 13 15 17 18 19 21 23 23 24 25 24 24 25 26 27 27 28 28 28 30 30 29 29 28 28 27
18 15 17 17 18 16 13 12 14 18 16 10 11 11 12 13 12 12 19 20 20 21 22 23 24 24 25 25 24 25 26 27 27 28 29 29 29 30 31 30 29 29 29 27
14 16 17 15 18 19 12 14 15 12 9 10 10 12 13 12 11 16 19 21 22 23 23 24 25 26 26 25 25 26 26 27 28 29 30 31 32 32 29 32 30 29 28 28
15 12 13 13 14 11 10 10 9 9 9 10 11 12 11 12 14 18 20 22 23 23 24 24 25 26 26 25 24 26 28 28 30 31 32 32 31 30 30 32 30 29 28 27
11 9 12 12 10 11 11 10 8 8 9 8 10 12 13 12 16 18 20 21 22 23 24 25 26 27 27 26 25 27 28 29 33 33 30 29 30 30 29 28 27 28 26 25
11 11 11 12 10 9 8 9 8 9 11 12 12 11 12 13 16 17 20 21 22 23 24 25 25 26 28 28 30 29 30 31 32 31 30 30 29 31 28 27 27 25 23 21
10 11 12 13 8 9 8 7 7 8 8 9 9 12 13 12 14 17 19 21 22 23 24 25 25 27 29 29 30 31 32 31 30 30 31 31 30 30 27 28 28 24 21 20